KG6SIB Weather Reports


Display with metric or nautical units.
time (UTC)temp
F
wind
direction
speed
MPH
gust
MPH
rain 1hr
in
rain 24hr
in
rain mn
in
humidity
%
barometer
mb
20260505124641 46 227 10.0 15.0 0.07 0.18 0.18 94 1012.2
20260505124142 46 202 10.0 14.0 0.07 0.18 0.18 94 1012.3
20260505123641 46 243 6.0 14.0 0.05 0.16 0.16 94 1012.1
20260505122641 46 227 1.0 12.0 0.05 0.16 0.16 94 1012.2
20260505122141 46 242 3.0 14.0 0.05 0.16 0.16 94 1012.2
20260505121641 46 245 8.0 15.0 0.05 0.16 0.16 94 1012.1
20260505121141 46 228 8.0 15.0 0.05 0.16 0.16 94 1012.1
20260505120641 46 242 8.0 13.0 0.05 0.15 0.15 94 1012.1
20260505120141 46 231 3.0 13.0 0.04 0.14 0.14 94 1012.0
20260505115640 46 263 6.0 13.0 0.02 0.12 0.12 94 1012.1
20260505115141 46 219 10.0 13.0 0.01 0.11 0.11 94 1012.1
20260505114641 46 253 2.0 11.0 0.01 0.11 0.11 94 1012.1
20260505114140 46 223 7.0 12.0 0.01 0.11 0.11 94 1012.2
20260505113640 46 242 5.0 12.0 0.01 0.11 0.11 93 1012.2
20260505113141 46 248 7.0 12.0 0.01 0.11 0.11 94 1012.2
20260505112141 46 227 1.0 9.0 0.03 0.11 0.11 93 1012.3
20260505111640 46 239 8.0 9.0 0.03 0.11 0.11 93 1012.4
20260505111140 46 236 5.0 11.0 0.03 0.11 0.11 93 1012.5
20260505110140 46 221 5.0 15.0 0.02 0.10 0.10 93 1012.4
20260505102139 45 248 9.0 11.0 0.04 0.08 0.08 93 1012.4
20260505101639 45 245 5.0 14.0 0.05 0.08 0.08 92 1012.5
20260505101139 45 229 6.0 14.0 0.06 0.08 0.08 92 1012.5
20260505100639 45 237 9.0 12.0 0.06 0.08 0.08 92 1012.5
20260505100139 45 248 4.0 9.0 0.07 0.08 0.08 92 1012.6
20260505095639 45 238 3.0 9.0 0.06 0.07 0.07 92 1012.6
20260505095139 45 233 6.0 7.0 0.07 0.07 0.07 92 1012.7
20260505094639 45 227 2.0 6.0 0.06 0.06 0.06 92 1012.8
20260505094139 45 250 4.0 10.0 0.06 0.06 0.06 91 1012.8
20260505093639 45 251 4.0 10.0 0.06 0.06 0.06 91 1012.9
20260505093139 45 244 3.0 8.0 0.05 0.05 0.05 91 1012.9
20260505092639 45 231 0.0 0.0 0.04 0.04 0.04 91 1012.9
20260505092139 45 231 0.0 0.0 0.04 0.04 0.04 90 1013.0
20260505091639 45 231 0.0 0.0 0.03 0.03 0.03 90 1013.0
20260505091139 45 231 0.0 2.0 0.02 0.02 0.02 90 1013.0
20260505090639 45 231 0.0 2.0 0.02 0.02 0.02 90 1013.0
20260505090139 45 231 0.0 1.0 0.01 0.01 0.01 89 1013.1
20260505085639 45 231 0.0 3.0 0.01 0.01 0.01 89 1013.4
20260505085139 45 231 0.0 5.0 0.00 0.00 0.00 88 1013.3
20260505084638 45 231 1.0 7.0 0.00 0.00 0.00 88 1013.4
20260505084139 45 232 4.0 7.0 0.00 0.00 0.00 88 1013.5
20260505083639 46 269 7.0 7.0 0.00 0.00 0.00 88 1013.7
20260505083138 46 232 2.0 4.0 0.00 0.00 0.00 88 1013.7
20260505082638 46 233 3.0 5.0 0.00 0.00 0.00 88 1013.9
20260505082139 46 233 2.0 5.0 0.00 0.00 0.00 88 1014.0
20260505081139 46 237 1.0 5.0 0.00 0.00 0.00 88 1014.2
20260505080639 46 238 4.0 5.0 0.00 0.00 0.00 88 1014.2
20260505080138 46 244 4.0 5.0 0.00 0.00 0.00 88 1014.3
20260505075638 46 245 3.0 7.0 0.00 0.00 0.00 88 1014.1
20260505075138 46 245 3.0 7.0 0.00 0.00 0.00 88 1014.2
20260505074638 46 236 1.0 7.0 0.00 0.00 0.00 88 1014.1
20260505074138 46 235 3.0 7.0 0.00 0.00 0.00 88 1014.1
20260505072138 46 237 3.0 10.0 0.00 0.00 0.00 88 1014.3
20260505071638 46 244 7.0 10.0 0.00 0.00 0.00 88 1014.3
20260505071138 47 244 5.0 9.0 0.00 0.00 0.00 88 1014.6
20260505070138 47 246 1.0 6.0 0.00 0.00 0.00 88 1014.6
20260505065638 47 227 3.0 8.0 0.00 0.00 0.00 88 1014.2
20260505065137 47 236 2.0 10.0 0.00 0.00 0.00 88 1014.2
20260505064638 47 236 5.0 10.0 0.00 0.00 0.00 88 1014.3
20260505064137 47 242 2.0 8.0 0.00 0.00 0.00 88 1014.3
20260505063637 47 245 5.0 9.0 0.00 0.00 0.00 88 1014.4
20260505063138 47 234 3.0 9.0 0.00 0.00 0.00 88 1014.5
20260505062637 47 265 8.0 9.0 0.00 0.00 0.00 88 1014.5
20260505062137 47 229 4.0 8.0 0.00 0.00 0.00 88 1014.4
20260505061637 47 270 3.0 10.0 0.00 0.00 0.00 88 1014.3
20260505061137 47 235 0.0 10.0 0.00 0.00 0.00 88 1014.4
20260505060137 47 250 3.0 11.0 0.00 0.00 0.00 87 1014.6
20260505055637 47 242 2.0 9.0 0.00 0.00 0.00 87 1014.3
20260505055137 47 232 6.0 9.0 0.00 0.00 0.00 87 1014.3
20260505054636 47 244 2.0 11.0 0.00 0.00 0.00 87 1014.4
20260505054137 47 192 2.0 11.0 0.00 0.00 0.00 87 1014.4
20260505053637 47 246 2.0 9.0 0.00 0.00 0.00 87 1014.5
20260505053137 47 237 3.0 9.0 0.00 0.00 0.00 86 1014.5
20260505052636 47 235 6.0 11.0 0.00 0.00 0.00 86 1014.6
20260505052137 47 227 4.0 11.0 0.00 0.00 0.00 85 1014.7
20260505051637 47 242 5.0 11.0 0.00 0.00 0.00 85 1014.7
20260505051136 47 241 8.0 14.0 0.00 0.00 0.00 86 1014.7
20260505050636 47 228 2.0 14.0 0.00 0.00 0.00 85 1014.8
20260505050136 47 238 4.0 12.0 0.00 0.00 0.00 86 1014.8
20260505041636 47 198 5.0 10.0 0.00 0.00 0.00 87 1014.3
20260505041135 47 240 4.0 14.0 0.00 0.00 0.00 86 1014.3
20260505040636 47 219 6.0 14.0 0.00 0.00 0.00 86 1014.4
20260505040136 47 244 7.0 14.0 0.00 0.00 0.00 86 1014.4
20260505035636 47 240 10.0 12.0 0.00 0.00 0.00 86 1014.3
20260505034635 47 231 2.0 13.0 0.00 0.00 0.00 85 1014.2
20260505034135 48 252 11.0 13.0 0.00 0.00 0.00 85 1014.3
20260505033635 48 227 4.0 12.0 0.00 0.00 0.00 86 1014.3
20260505033136 48 234 6.0 14.0 0.00 0.00 0.00 86 1014.1
20260505032135 48 219 7.0 13.0 0.00 0.00 0.00 85 1014.1
20260505031635 48 240 6.0 12.0 0.00 0.00 0.00 83 1014.3
20260505031135 48 228 4.0 12.0 0.00 0.00 0.00 83 1014.0
20260505030635 49 204 3.0 12.0 0.00 0.00 0.00 83 1013.9
20260505030135 49 248 3.0 13.0 0.00 0.00 0.00 83 1013.9
20260505025635 49 205 6.0 14.0 0.00 0.00 0.00 82 1013.8
20260505024635 49 223 5.0 14.0 0.00 0.00 0.00 82 1013.6
20260505024135 49 236 3.0 13.0 0.00 0.00 0.00 81 1013.4
20260505023635 49 210 5.0 14.0 0.00 0.00 0.00 80 1013.5
20260505023135 49 239 10.0 14.0 0.00 0.00 0.00 80 1013.5
20260505022635 49 202 4.0 13.0 0.00 0.00 0.00 79 1013.6
20260505022134 50 251 10.0 15.0 0.00 0.00 0.00 78 1013.5
20260505021634 50 229 9.0 15.0 0.00 0.00 0.00 77 1013.6
20260505021135 50 227 5.0 16.0 0.00 0.00 0.00 76 1013.7
20260505020635 51 225 10.0 16.0 0.00 0.00 0.00 75 1013.8
20260505020134 51 229 4.0 16.0 0.00 0.00 0.00 75 1013.6
20260505015135 52 227 5.0 12.0 0.00 0.00 0.00 74 1013.3
20260505014634 52 243 6.0 16.0 0.00 0.00 0.00 73 1013.3
20260505014135 52 182 3.0 21.0 0.00 0.00 0.00 73 1013.4
20260505013634 52 209 12.0 21.0 0.00 0.00 0.00 73 1013.6
20260505013134 52 225 10.0 18.0 0.00 0.00 0.00 72 1013.5
20260505012634 53 242 9.0 17.0 0.00 0.00 0.00 71 1013.8
20260505012134 53 199 9.0 20.0 0.00 0.00 0.00 69 1013.9
20260505011634 54 188 6.0 20.0 0.00 0.00 0.00 68 1013.8
20260505011134 54 248 7.0 19.0 0.00 0.00 0.00 68 1013.7
20260505010634 54 242 13.0 19.0 0.00 0.00 0.00 67 1013.7
20260505010133 54 198 9.0 16.0 0.00 0.00 0.00 66 1013.9
20260505005634 55 215 5.0 17.0 0.00 0.00 0.00 66 1014.2
20260505005133 55 229 9.0 17.0 0.00 0.00 0.00 66 1014.1
20260505004633 55 220 8.0 14.0 0.00 0.00 0.00 66 1014.1
20260505004134 56 217 5.0 15.0 0.00 0.00 0.00 64 1014.0
20260505003634 56 194 5.0 15.0 0.00 0.00 0.00 64 1014.1
20260505003134 57 257 12.0 16.0 0.00 0.00 0.00 63 1014.3
20260505002634 57 259 12.0 16.0 0.00 0.00 0.00 62 1014.3
20260505002134 57 236 7.0 16.0 0.00 0.00 0.00 63 1014.4
20260505001633 57 220 3.0 15.0 0.00 0.00 0.00 62 1014.3
20260505000633 55 219 6.0 16.0 0.00 0.00 0.00 64 1014.1
20260505000133 56 215 2.0 15.0 0.00 0.00 0.00 64 1014.3
20260504235633 56 215 10.0 15.0 0.00 0.00 0.00 64 1014.5
20260504235133 55 204 6.0 15.0 0.00 0.00 0.00 64 1014.4
20260504233133 55 201 5.0 15.0 0.00 0.00 0.00 63 1014.2
20260504232633 55 240 5.0 15.0 0.00 0.00 0.00 62 1014.1
20260504232132 55 211 11.0 15.0 0.00 0.00 0.00 63 1014.2
20260504231632 55 265 4.0 10.0 0.00 0.00 0.00 63 1014.1
20260504231132 55 214 2.0 10.0 0.00 0.00 0.00 62 1014.1
20260504230632 56 228 2.0 14.0 0.00 0.00 0.00 63 1014.6
20260504230133 56 254 10.0 16.0 0.00 0.00 0.00 62 1014.5
20260504225632 56 224 3.0 16.0 0.00 0.00 0.00 61 1014.4
20260504225133 56 249 10.0 15.0 0.00 0.00 0.00 61 1014.4
20260504224632 56 233 6.0 15.0 0.00 0.00 0.00 62 1014.5
20260504224132 56 251 7.0 16.0 0.00 0.00 0.00 62 1014.5
20260504223132 57 234 3.0 15.0 0.00 0.00 0.00 60 1014.2
20260504222632 57 235 11.0 13.0 0.00 0.00 0.00 60 1014.5
20260504222132 57 217 8.0 13.0 0.00 0.00 0.00 61 1014.7
20260504221632 56 225 7.0 14.0 0.00 0.00 0.00 61 1014.8
20260504221132 56 227 6.0 14.0 0.00 0.00 0.00 60 1014.8
20260504220632 56 255 7.0 15.0 0.00 0.00 0.00 61 1014.8
20260504215632 57 180 3.0 17.0 0.00 0.00 0.00 60 1015.1
20260504215132 58 253 9.0 17.0 0.00 0.00 0.00 60 1015.0
20260504214632 58 247 12.0 18.0 0.00 0.00 0.00 60 1015.1
20260504214131 58 224 2.0 18.0 0.00 0.00 0.00 61 1015.1
20260504213631 58 217 3.0 17.0 0.00 0.00 0.00 61 1015.2
20260504213132 58 215 3.0 15.0 0.00 0.00 0.00 60 1015.3
20260504212631 58 202 4.0 15.0 0.00 0.00 0.00 60 1015.3
20260504211631 59 221 4.0 13.0 0.00 0.00 0.00 57 1015.6
20260504211131 59 255 4.0 15.0 0.00 0.00 0.00 60 1015.5
20260504210631 58 158 3.0 16.0 0.00 0.00 0.00 59 1015.3
20260504210132 58 248 11.0 16.0 0.00 0.00 0.00 58 1015.2
20260504205631 59 205 4.0 16.0 0.00 0.00 0.00 59 1015.6
20260504205131 59 260 6.0 18.0 0.00 0.00 0.00 59 1015.7
20260504204631 59 230 8.0 18.0 0.00 0.00 0.00 60 1015.5
20260504204131 58 211 5.0 14.0 0.00 0.00 0.00 59 1015.1
20260504203131 59 231 7.0 16.0 0.00 0.00 0.00 57 1015.6
20260504202631 59 232 6.0 14.0 0.00 0.00 0.00 60 1015.7
20260504202131 58 218 2.0 15.0 0.00 0.00 0.00 60 1015.4
20260504200130 57 241 13.0 16.0 0.00 0.00 0.00 61 1015.5
20260504195630 57 236 3.0 16.0 0.00 0.00 0.00 64 1015.6
20260504194130 57 172 3.0 14.0 0.00 0.00 0.00 63 1015.6
20260504193631 57 235 3.0 14.0 0.00 0.00 0.00 64 1015.7
20260504193130 56 202 2.0 14.0 0.00 0.00 0.00 65 1015.5
20260504192631 55 240 3.0 14.0 0.00 0.00 0.00 66 1015.4
20260504192130 55 252 7.0 14.0 0.00 0.00 0.00 68 1015.2
20260504191630 55 244 7.0 11.0 0.00 0.00 0.00 70 1015.2
20260504191130 55 232 3.0 12.0 0.00 0.00 0.00 68 1015.3
20260504190130 54 222 5.0 14.0 0.00 0.00 0.00 73 1015.3
20260504185630 53 225 6.0 11.0 0.00 0.00 0.00 73 1015.4
20260504184630 53 242 3.0 13.0 0.00 0.00 0.00 73 1015.5
20260504183129 52 227 8.0 12.0 0.00 0.00 0.00 75 1015.3
20260504182630 53 231 1.0 12.0 0.00 0.00 0.00 75 1015.4
20260504182130 53 238 8.0 11.0 0.00 0.00 0.00 73 1015.5
20260504181629 53 220 5.0 13.0 0.00 0.00 0.00 74 1015.5
20260504181130 53 200 3.0 13.0 0.00 0.00 0.00 74 1015.4
20260504180630 52 214 5.0 11.0 0.00 0.00 0.00 77 1015.0
20260504180129 52 272 7.0 12.0 0.00 0.00 0.00 76 1015.0
20260504175630 52 229 6.0 12.0 0.00 0.00 0.00 74 1015.3
20260504175129 53 236 9.0 11.0 0.00 0.00 0.00 72 1015.4
20260504174630 53 244 3.0 12.0 0.00 0.00 0.00 73 1015.4
20260504174129 52 260 6.0 12.0 0.00 0.00 0.00 75 1015.2
20260504173629 52 230 8.0 10.0 0.00 0.00 0.00 75 1015.2
20260504173129 52 219 1.0 11.0 0.00 0.00 0.00 76 1015.2
20260504172129 51 231 7.0 12.0 0.00 0.00 0.00 78 1014.8
20260504171128 50 232 7.0 13.0 0.00 0.00 0.00 79 1014.6
20260504170629 50 238 9.0 13.0 0.00 0.00 0.00 80 1014.5
20260504170129 50 233 6.0 12.0 0.00 0.00 0.00 80 1014.4
20260504160128 50 202 5.0 10.0 0.00 0.00 0.00 76 1014.3
20260504151127 48 246 1.0 11.0 0.00 0.00 0.00 87 1014.0
20260504150628 47 229 8.0 12.0 0.00 0.00 0.00 89 1013.5
20260504150128 47 225 4.0 12.0 0.00 0.00 0.00 90 1013.5
20260504141126 45 208 5.0 11.0 0.00 0.00 0.00 91 1013.1
20260504140627 45 217 0.0 11.0 0.00 0.00 0.00 91 1013.2
20260504140126 45 226 4.0 10.0 0.00 0.00 0.00 91 1013.5